This demonstration page uses our WeatherBlox Daily Observations layout. Learn more.

Left ArrowRight Arrow

Hourly Observations for July 4, 2021

Temp ( °F °C ) Dew Point ( °F °C ) Humidity (%) Winds ( mph kmh ) Pressure ( in mb ) Visibility ( mi km ) Precip ( " mm )
12:15 am 00:15 Clear 74 23.2 58 14.6 59 59 SSE 12 19 29.87 1012 10 16 N/A
12:35 am 00:35 Clear 73 23 58 14.5 59 59 S 10 17 29.88 1012 10 16 N/A
12:55 am 00:55 Partly Cloudy 73 23 58 14.3 58 58 S 13 20 29.88 1012 10 16 N/A
1:15 am 01:15 Mostly Cloudy 73 23 58 14.5 59 59 S 13 20 29.88 1012 10 16 N/A
1:35 am 01:35 Mostly Cloudy 73 22.6 58 14.6 61 61 S 9 15 29.88 1012 10 16 N/A
1:55 am 01:55 Partly Cloudy 72 22.2 58 14.6 62 62 S 8 13 29.88 1012 10 16 N/A
2:15 am 02:15 Cloudy 72 22.4 58 14.7 62 62 S 8 13 29.88 1012 10 16 N/A
2:35 am 02:35 Mostly Cloudy 71 21.7 58 14.7 65 65 S 8 13 29.88 1012 10 16 N/A
2:55 am 02:55 Partly Cloudy 70 20.9 59 14.8 68 68 S 8 13 29.87 1012 10 16 N/A
3:15 am 03:15 Clear 70 21 58 14.6 67 67 S 9 15 29.87 1012 10 16 N/A
3:35 am 03:35 Clear 70 21 58 14.6 67 67 S 9 15 29.86 1011 10 16 N/A
3:55 am 03:55 Clear 70 20.9 58 14.6 67 67 S 10 17 29.86 1011 10 16 N/A
4:15 am 04:15 Clear 69 20.8 58 14.5 67 67 S 10 17 29.86 1011 10 16 N/A
4:35 am 04:35 Clear 69 20.5 58 14.5 69 69 S 8 13 29.87 1011 10 16 N/A
4:55 am 04:55 Clear 69 20.3 58 14.5 69 69 S 9 15 29.86 1011 10 16 N/A
5:15 am 05:15 Clear 68 20 58 14.6 71 71 S 8 13 29.86 1011 10 16 N/A
5:35 am 05:35 Clear 68 20 58 14.6 71 71 S 8 13 29.86 1011 10 16 N/A
5:55 am 05:55 Clear 67 19.5 59 14.8 74 74 S 5 7 29.87 1011 10 16 N/A
6:15 am 06:15 Sunny 66 19.1 59 14.9 77 77 S 3 6 29.87 1012 10 16 N/A
6:35 am 06:35 Sunny 66 19 59 15.1 78 78 SSE 5 7 29.88 1012 10 16 N/A
6:55 am 06:55 Sunny 67 19.3 60 15.5 79 79 SSE 7 11 29.88 1012 10 16 N/A
7:15 am 07:15 Sunny 68 20 60 15.5 75 75 S 8 13 29.88 1012 10 16 N/A
7:35 am 07:35 Sunny 69 20.3 60 15.8 75 75 S 7 11 29.87 1011 10 16 N/A
7:55 am 07:55 Sunny 69 20.5 61 16.2 76 76 S 6 9 29.87 1011 10 16 N/A
8:15 am 08:15 Sunny 69 20.8 62 16.5 77 77 SSW 8 13 29.87 1011 10 16 N/A
8:35 am 08:35 Sunny 71 21.7 63 17.1 75 75 S 9 15 29.86 1011 10 16 N/A
8:55 am 08:55 Sunny 72 22.1 64 17.7 76 76 SSW 8 13 29.86 1011 10 16 N/A
9:15 am 09:15 Sunny 74 23.3 65 18.3 74 74 SW 8 13 29.85 1011 10 16 N/A
9:35 am 09:35 Sunny 75 24.1 65 18.5 71 71 SSW 8 13 29.85 1011 10 16 N/A
9:55 am 09:55 Sunny 77 25.1 66 19.1 69 69 SW 8 13 29.84 1010 10 16 N/A
10:15 am 10:15 Sunny 78 25.4 66 19.1 68 68 SW 9 15 29.84 1010 10 16 N/A
10:35 am 10:35 Sunny 79 26.3 67 19.3 65 65 S 5 7 29.83 1010 10 16 N/A
10:55 am 10:55 Sunny 81 27 67 19.6 64 64 S 7 11 29.81 1010 10 16 N/A
11:15 am 11:15 Sunny 81 27.2 67 19.6 63 63 S 6 9 29.81 1010 10 16 N/A
11:35 am 11:35 Sunny 83 28.3 68 20 61 61 SSW 8 13 29.80 1009 10 16 N/A
11:55 am 11:55 Sunny 83 28.5 68 20 60 60 S 6 9 29.80 1009 10 16 N/A
12:15 pm 12:15 Sunny 84 29 68 20.1 59 59 SSW 3 6 29.80 1009 10 16 N/A
12:35 pm 12:35 Sunny 86 29.9 68 20.2 56 56 S 8 13 29.79 1009 10 16 N/A
12:55 pm 12:55 Sunny 87 30.3 68 20 54 54 S 7 11 29.79 1009 10 16 N/A
1:15 pm 13:15 Sunny 87 30.8 68 20 53 53 S 7 11 29.78 1009 10 16 N/A
1:35 pm 13:35 Partly Cloudy 88 31.2 69 20.6 53 53 S 9 15 29.78 1008 10 16 N/A
1:55 pm 13:55 Partly Cloudy 88 31 68 19.9 52 52 S 12 19 29.77 1008 10 16 N/A
2:15 pm 14:15 Sunny 90 32.1 69 20.4 50 50 S 8 13 29.76 1008 10 16 N/A
2:35 pm 14:35 Partly Cloudy 90 32.4 70 20.9 51 51 S 10 17 29.76 1008 10 16 N/A
2:55 pm 14:55 Partly Cloudy 91 32.5 69 20.6 49 49 SSW 8 13 29.76 1008 10 16 N/A
3:15 pm 15:15 Partly Cloudy 91 32.6 68 19.8 47 47 SSE 9 15 29.76 1008 10 16 N/A
3:35 pm 15:35 Sunny 91 32.7 68 19.9 47 47 S 7 11 29.75 1007 10 16 N/A
3:55 pm 15:55 Sunny 92 33.1 67 19.5 45 45 S 8 13 29.74 1007 10 16 N/A
4:15 pm 16:15 Sunny 92 33.4 67 19.7 44 44 S 12 19 29.74 1007 10 16 N/A
4:35 pm 16:35 Sunny 91 33 67 19.6 45 45 SSW 6 9 29.75 1007 10 16 N/A
4:55 pm 16:55 Sunny 91 32.9 69 20.3 47 47 SSE 9 15 29.74 1007 10 16 N/A
5:15 pm 17:15 Partly Cloudy 92 33.5 69 20.4 46 46 SSE 9 15 29.73 1007 10 16 N/A
5:35 pm 17:35 Sunny 91 32.8 68 19.9 47 47 SSE 13 20 29.73 1007 10 16 N/A
5:55 pm 17:55 Sunny 91 33 68 20.2 47 47 SSE 10 17 29.73 1007 10 16 N/A
6:15 pm 18:15 Sunny 91 32.6 68 20.1 48 48 SSE 12 19 29.73 1007 10 16 N/A
6:35 pm 18:35 Sunny 90 32.2 69 20.5 50 50 SSE 13 20 29.73 1007 10 16 N/A
6:55 pm 18:55 Sunny 89 31.9 69 20.3 50 50 SSE 12 19 29.73 1007 10 16 N/A
7:15 pm 19:15 Sunny 89 31.6 69 20.5 52 52 SSE 10 17 29.75 1007 10 16 N/A
7:35 pm 19:35 Sunny 88 31.2 69 20.3 52 52 SSE 10 17 29.76 1008 10 16 N/A
7:55 pm 19:55 Sunny 88 31 68 19.8 51 51 SSE 10 17 29.76 1008 10 16 N/A
8:15 pm 20:15 Hazy 87 30.4 68 19.9 53 53 SSE 10 17 29.77 1008 5 8 N/A
8:35 pm 20:35 Sunny 86 29.9 68 19.9 55 55 SSE 7 11 29.78 1008 10 16 N/A
8:55 pm 20:55 Sunny 84 29.1 67 19.7 57 57 SE 7 11 29.79 1009 10 16 N/A
9:15 pm 21:15 Clear 84 28.7 68 20.1 60 60 SE 6 9 29.79 1009 10 16 N/A
9:35 pm 21:35 Clear 82 27.6 69 20.3 64 64 SE 6 9 29.81 1009 10 16 N/A
9:55 pm 21:55 Clear 81 27.1 69 20.4 67 67 SSE 7 11 29.81 1010 10 16 N/A
10:15 pm 22:15 Clear 80 26.4 69 20.6 71 71 SSE 8 13 29.83 1010 10 16 N/A
10:35 pm 22:35 Clear 78 25.5 69 20.8 75 75 SE 7 11 29.84 1010 10 16 N/A
10:55 pm 22:55 Clear 77 25.2 69 20.7 76 76 SSE 7 11 29.84 1010 10 16 N/A
11:15 pm 23:15 Clear 77 25 69 20.6 77 77 SSE 6 9 29.84 1010 10 16 N/A
11:35 pm 23:35 Clear 76 24.5 69 20.5 78 78 SSE 8 13 29.85 1011 10 16 N/A
11:55 pm 23:55 Clear 76 24.5 68 20.2 77 77 SSE 8 13 29.86 1011 10 16 N/A

Powered by AerisWeather